Temp
57 57 57 57 57 56 54 46 36 52 55 39 42 36 44 46 47 50 47 47 44 41 40 30 27 26 30 44 42 35 40 31 25 33 43 44 36 35 36 27 27 30 28 27
56 56 55 56 56 57 49 43 42 53 51 35 37 44 44 47 47 46 45 44 46 47 41 32 35 35 44 44 41 35 38 30 25 28 36 41 34 35 38 37 34 28 23 27
56 56 56 56 56 56 51 46 35 44 48 47 42 41 41 40 48 47 48 46 48 45 41 43 36 37 41 43 43 44 40 34 31 24 29 34 32 34 37 35 28 29 29 31
56 55 55 55 55 55 51 47 41 44 34 39 42 43 42 40 40 46 48 44 45 42 36 40 38 40 39 42 44 40 38 29 35 36 39 39 36 35 36 32 33 29 32 32
56 55 54 54 55 56 50 41 41 45 42 45 42 38 38 40 42 42 42 41 44 45 38 39 36 39 38 36 39 31 38 30 34 32 40 39 34 36 37 36 36 35 37 35
55 55 54 54 54 55 49 48 50 44 40 41 39 38 40 42 43 44 46 44 43 41 42 45 45 45 44 41 36 35 35 31 32 24 37 36 28 34 35 37 39 37 32 39
55 54 54 54 54 55 51 46 44 41 36 39 40 42 43 42 42 40 45 46 42 43 49 49 46 45 45 44 42 43 36 35 35 25 31 19 34 42 43 40 41 43 43 45
54 54 54 55 54 54 49 48 44 41 37 41 40 41 41 41 41 40 43 44 44 47 43 38 36 37 38 42 44 41 42 37 29 24 22 31 36 40 41 38 37 45 43 44
54 54 54 54 54 54 51 45 46 43 37 36 43 40 40 36 36 36 41 45 46 44 41 38 28 26 31 32 37 44 43 41 31 30 24 23 35 42 44 44 28 42 46 42
54 54 54 53 53 53 50 46 47 44 38 38 40 37 36 42 39 37 38 40 40 43 38 34 29 30 35 27 28 33 35 34 29 30 25 31 41 43 44 28 33 42 43 45
53 53 54 53 53 53 50 45 47 44 40 38 41 43 38 39 39 34 39 37 38 36 34 32 33 31 34 30 35 32 32 28 26 30 26 23 44 41 34 39 42 42 41 44
53 53 53 54 53 53 51 45 49 49 41 39 43 43 43 42 40 36 40 37 38 39 35 36 35 33 34 33 28 35 28 35 31 33 32 41 42 43 46 47 43 42 42 43
53 53 54 54 53 53 51 46 46 45 40 38 37 37 43 46 45 45 34 40 42 40 40 35 36 31 35 29 31 32 37 39 33 35 38 39 43 45 47 48 46 46 46 46
53 53 53 53 53 53 51 46 46 44 42 35 35 45 40 45 45 44 43 40 43 41 39 36 34 33 39 33 35 33 37 37 36 36 39 41 44 45 46 47 48 48 48 47
52 52 52 53 53 53 49 46 48 47 40 34 35 40 42 44 42 42 42 41 39 36 34 33 33 37 35 37 34 32 39 36 34 33 42 40 42 45 48 46 46 47 46 45
52 52 52 53 52 51 46 40 45 48 46 36 31 38 38 39 41 40 40 39 38 36 34 35 37 39 35 30 30 41 43 45 46 42 44 45 46 46 47 46 47 47 46 46
52 52 52 52 51 46 42 41 43 49 45 37 31 31 37 41 40 38 36 38 36 35 34 33 34 34 35 32 28 42 45 45 43 44 44 41 43 41 46 47 46 47 46 45
52 51 52 51 50 48 42 45 48 47 41 39 28 29 31 40 34 32 37 33 34 34 33 33 31 33 33 28 38 41 44 44 42 43 42 43 44 44 44 44 44 42 42 42
51 50 49 46 42 39 41 48 47 45 41 32 30 26 24 38 35 36 33 34 28 35 30 31 33 31 28 34 37 40 41 40 40 42 42 42 41 41 41 41 41 40 40 40
50 47 41 35 39 47 46 40 36 36 36 36 30 34 26 33 33 32 33 32 28 21 31 33 28 29 39 40 41 42 43 42 42 37 35 38 37 38 38 38 39 39 38 37
43 38 36 40 46 40 37 33 32 34 30 33 32 33 26 33 30 31 35 29 26 19 28 24 25 26 32 41 45 42 43 44 44 41 41 41 41 39 38 37 38 37 36 34
43 40 42 40 36 33 31 30 31 31 27 31 29 28 30 30 34 32 31 28 26 18 31 21 20 32 36 39 39 41 43 42 41 41 40 40 40 39 38 36 35 35 34 34
42 37 33 32 32 26 26 24 27 24 30 29 27 24 29 29 31 31 29 25 23 30 23 23 28 36 34 35 36 38 40 41 40 39 39 38 37 37 36 33 33 33 32 32
35 32 27 27 26 28 28 29 28 31 30 31 30 24 26 30 26 29 23 29 27 16 17 20 30 38 34 34 36 36 35 36 35 34 34 33 33 31 32 31 31 30 29 29
32 31 26 28 31 31 32 31 30 30 34 33 27 25 27 26 21 26 25 20 16 21 22 28 30 35 35 32 33 34 32 32 30 30 29 28 28 27 25 27 28 28 28 28
32 32 29 32 30 28 28 26 26 30 34 30 29 22 18 19 22 18 19 16 17 23 27 30 29 31 31 31 32 32 31 30 29 28 28 28 27 26 24 24 22 23 23 22
31 30 35 30 29 30 29 29 29 36 33 25 26 23 22 23 17 16 22 20 28 31 30 29 30 31 32 33 32 30 29 27 27 27 27 27 28 27 25 22 24 23 22 18
MSLP
1017.16 1017.22 1017.18 1017.39 1017.48 1017.28 1016.83 1016.75 1016.62 1016.32 1016.08 1015.90 1014.92 1015.10 1014.98 1014.79 1014.56 1014.40 1014.45 1014.52 1014.80 1015.09 1015.76 1016.73 1017.30 1017.64 1017.37 1016.92 1016.78 1016.31 1015.92 1015.76 1014.47 1012.66 1012.63 1012.35 1012.09 1011.41 1010.30 1009.86 1009.44 1008.64 1008.72 1009.69
1017.85 1018.19 1018.51 1018.33 1018.01 1017.66 1017.69 1017.26 1016.87 1016.05 1016.21 1015.68 1015.20 1015.07 1015.06 1014.78 1014.54 1014.53 1014.46 1014.38 1014.66 1014.87 1015.21 1015.88 1016.20 1016.44 1016.23 1016.54 1016.48 1016.45 1016.01 1015.13 1013.98 1012.37 1012.19 1011.75 1011.83 1011.49 1010.72 1009.99 1009.67 1009.48 1009.16 1009.98
1018.83 1018.44 1018.20 1018.12 1017.98 1017.62 1017.68 1016.99 1016.88 1016.31 1015.63 1015.43 1014.94 1014.93 1014.95 1014.98 1014.91 1014.73 1014.70 1014.60 1014.54 1014.55 1014.79 1015.23 1015.52 1015.63 1015.83 1016.09 1016.20 1016.23 1016.27 1015.23 1014.52 1014.28 1014.05 1013.62 1012.80 1012.26 1011.51 1010.73 1010.36 1010.56 1010.28 1010.17
1019.18 1018.78 1018.56 1018.31 1017.70 1017.21 1017.38 1016.93 1016.91 1016.58 1016.19 1015.62 1015.30 1015.00 1015.05 1015.08 1015.04 1015.02 1014.91 1014.69 1014.60 1014.71 1014.80 1014.79 1015.07 1015.40 1015.28 1015.66 1015.64 1015.74 1015.58 1015.19 1014.41 1013.88 1013.59 1013.30 1013.45 1013.02 1012.40 1011.65 1011.63 1011.12 1010.95 1010.25
1019.12 1019.18 1019.12 1018.71 1017.94 1017.15 1017.17 1017.80 1017.22 1016.85 1016.32 1015.90 1015.58 1015.63 1015.41 1015.30 1015.52 1015.46 1015.11 1015.04 1015.05 1014.91 1015.12 1015.50 1015.44 1015.51 1015.37 1015.46 1015.42 1015.38 1015.18 1014.83 1014.17 1013.57 1013.19 1013.16 1013.52 1013.60 1013.16 1012.43 1012.00 1011.65 1011.25 1010.69
1019.35 1019.37 1019.34 1018.86 1018.22 1017.47 1017.59 1017.71 1017.39 1017.39 1017.03 1016.36 1015.84 1015.79 1015.78 1015.69 1015.76 1016.03 1015.81 1015.69 1015.44 1015.45 1015.75 1015.72 1015.54 1015.39 1015.36 1015.33 1015.24 1015.08 1014.86 1014.76 1014.11 1013.55 1012.93 1012.85 1013.49 1013.96 1013.51 1013.11 1012.66 1012.17 1011.28 1011.44
1019.93 1019.95 1019.69 1019.31 1018.54 1018.10 1018.24 1018.65 1018.39 1017.88 1017.29 1016.83 1016.58 1016.33 1016.26 1016.22 1016.25 1016.23 1016.22 1016.13 1015.98 1016.50 1016.02 1015.65 1015.27 1015.12 1014.96 1014.88 1014.65 1014.83 1014.68 1014.50 1014.24 1013.99 1013.22 1013.48 1013.85 1013.83 1013.62 1013.32 1013.08 1012.50 1012.08 1011.83
1020.08 1019.82 1019.95 1019.98 1019.42 1018.59 1018.41 1018.73 1018.66 1018.46 1017.95 1017.27 1017.22 1017.05 1016.79 1016.88 1016.95 1016.77 1016.63 1016.84 1016.95 1016.66 1016.29 1015.79 1015.05 1014.44 1014.24 1013.88 1014.04 1014.16 1014.09 1014.20 1014.16 1014.14 1013.88 1013.99 1013.66 1013.49 1013.43 1013.34 1013.29 1013.15 1012.89 1012.58
1019.94 1019.95 1019.55 1019.67 1019.67 1019.54 1019.30 1019.07 1018.87 1018.80 1018.83 1018.54 1018.00 1017.62 1017.47 1017.23 1017.09 1017.27 1017.12 1017.18 1017.03 1016.85 1016.63 1016.24 1015.65 1014.75 1014.39 1013.86 1013.63 1013.74 1013.90 1013.87 1014.20 1013.86 1013.96 1013.72 1013.35 1013.29 1013.28 1013.17 1013.56 1013.53 1013.15 1013.13
1020.20 1019.96 1019.96 1019.95 1019.98 1019.98 1020.04 1020.07 1019.49 1018.83 1019.03 1019.03 1018.74 1018.52 1018.46 1017.76 1017.38 1017.23 1017.35 1017.32 1017.22 1017.16 1016.89 1016.34 1015.66 1014.99 1014.73 1014.45 1013.89 1013.63 1013.65 1013.59 1013.77 1013.76 1013.63 1013.46 1013.15 1013.27 1013.34 1013.72 1014.02 1013.55 1013.58 1013.59
1020.54 1020.37 1020.17 1020.08 1020.20 1020.08 1020.19 1020.11 1020.15 1019.97 1019.04 1019.12 1019.13 1018.99 1018.86 1018.79 1018.59 1018.23 1017.73 1017.71 1017.40 1017.42 1017.36 1016.58 1015.72 1015.47 1014.89 1014.59 1013.68 1013.60 1013.76 1013.70 1013.63 1013.65 1013.46 1013.54 1013.12 1013.43 1013.59 1013.49 1013.61 1013.79 1013.84 1013.80
1020.12 1020.05 1019.97 1019.93 1020.01 1020.07 1020.19 1020.04 1019.85 1019.79 1019.81 1019.80 1019.41 1019.16 1019.24 1019.20 1019.63 1019.65 1018.23 1018.06 1017.58 1017.33 1017.31 1016.75 1016.22 1015.63 1015.07 1014.82 1014.25 1013.74 1013.73 1013.48 1013.52 1013.36 1013.26 1012.97 1012.92 1013.00 1013.06 1013.32 1013.75 1013.95 1014.02 1014.14
1019.81 1019.74 1019.56 1019.73 1019.99 1020.03 1020.07 1020.14 1020.08 1019.93 1019.74 1019.83 1019.93 1019.31 1019.37 1019.35 1019.23 1019.49 1019.67 1018.26 1018.23 1017.97 1017.76 1017.63 1016.94 1016.37 1015.37 1015.10 1014.36 1013.58 1013.25 1013.23 1013.50 1013.15 1012.77 1012.97 1013.11 1013.01 1013.08 1013.31 1013.76 1014.08 1014.26 1014.45
1019.41 1019.38 1019.28 1019.28 1019.43 1019.67 1019.96 1020.02 1019.99 1020.22 1019.73 1019.64 1019.31 1019.45 1019.26 1019.05 1019.07 1019.21 1019.20 1019.41 1018.79 1018.64 1018.27 1017.83 1017.31 1016.73 1015.87 1015.30 1014.69 1014.11 1013.15 1013.15 1012.85 1012.52 1012.46 1012.69 1012.79 1012.98 1013.29 1013.49 1013.67 1014.05 1014.33 1014.53
1018.95 1018.81 1018.80 1018.67 1018.33 1019.07 1019.91 1019.99 1019.62 1019.85 1020.35 1019.71 1019.00 1019.01 1019.22 1019.21 1019.14 1018.98 1019.13 1019.07 1019.19 1018.87 1018.47 1018.09 1017.37 1016.48 1016.40 1015.48 1014.94 1013.08 1011.77 1011.44 1011.80 1011.57 1011.01 1011.42 1011.69 1012.37 1012.95 1013.70 1014.10 1014.32 1014.58 1014.94
1018.52 1018.51 1018.28 1017.93 1017.90 1018.71 1019.62 1019.92 1019.68 1019.49 1019.78 1019.93 1019.21 1018.93 1019.08 1019.44 1019.16 1019.02 1018.92 1019.03 1018.93 1019.02 1018.53 1017.86 1016.85 1016.67 1016.86 1016.02 1014.35 1010.98 1010.37 1010.33 1010.31 1010.43 1010.52 1011.04 1011.32 1012.06 1012.73 1013.43 1013.94 1014.37 1014.80 1015.16
1018.51 1018.33 1018.07 1018.01 1018.40 1019.01 1019.50 1019.54 1019.46 1019.48 1019.73 1020.11 1019.31 1018.71 1018.80 1019.13 1019.27 1019.23 1019.19 1019.04 1018.96 1018.87 1018.51 1017.88 1017.28 1016.95 1016.88 1015.72 1013.38 1010.52 1009.74 1009.80 1010.34 1010.27 1010.79 1011.64 1011.89 1012.49 1013.03 1013.43 1013.99 1014.62 1015.10 1015.63
1018.09 1018.16 1018.23 1018.40 1018.82 1019.41 1019.65 1019.45 1019.42 1019.45 1019.72 1019.91 1019.80 1018.92 1018.97 1018.79 1019.06 1019.14 1018.98 1018.99 1018.93 1018.62 1018.11 1017.59 1017.37 1017.01 1016.46 1014.30 1010.25 1009.90 1009.63 1009.76 1010.24 1010.57 1010.76 1011.14 1011.76 1012.51 1013.31 1013.79 1014.45 1015.06 1015.51 1016.04
1017.82 1018.07 1018.18 1018.66 1019.09 1019.41 1019.33 1019.42 1019.56 1019.72 1020.14 1019.64 1019.55 1019.20 1019.03 1019.05 1018.65 1018.82 1019.06 1018.88 1018.67 1018.05 1017.84 1016.98 1016.77 1015.70 1013.90 1010.19 1009.55 1009.35 1009.33 1009.43 1009.85 1010.65 1011.21 1011.41 1011.95 1012.64 1013.30 1013.97 1014.70 1015.19 1015.72 1016.27
1017.75 1018.11 1018.47 1018.99 1019.36 1019.28 1019.59 1019.76 1019.79 1019.81 1019.52 1019.30 1018.75 1018.33 1019.04 1019.20 1019.14 1018.93 1019.02 1018.89 1018.46 1017.98 1016.78 1016.35 1015.55 1012.62 1010.09 1008.81 1008.54 1008.37 1008.42 1008.91 1009.72 1010.76 1011.61 1011.67 1012.23 1012.88 1013.48 1014.13 1014.79 1015.26 1015.81 1016.38
1017.78 1018.09 1018.75 1019.46 1019.52 1019.66 1019.67 1019.52 1019.61 1018.99 1018.70 1017.88 1017.56 1017.68 1018.54 1018.90 1018.83 1018.87 1018.63 1018.59 1018.35 1018.01 1016.46 1016.39 1014.30 1011.04 1008.57 1006.92 1006.74 1007.14 1007.62 1008.32 1009.12 1009.80 1010.77 1011.22 1011.87 1012.76 1013.60 1014.34 1014.89 1015.44 1016.01 1016.62
1016.83 1017.81 1018.79 1019.30 1019.45 1019.39 1019.28 1018.45 1018.36 1018.04 1016.90 1016.20 1016.61 1017.04 1017.40 1018.31 1018.18 1018.33 1018.86 1018.76 1018.75 1017.43 1016.59 1016.28 1013.61 1009.19 1007.31 1006.85 1006.54 1006.74 1007.33 1008.16 1009.21 1009.98 1010.83 1011.45 1012.09 1012.83 1013.69 1014.56 1015.31 1015.95 1016.54 1017.06
1017.43 1018.16 1018.68 1018.79 1018.71 1018.53 1017.50 1016.71 1016.37 1015.98 1015.26 1015.61 1016.28 1017.23 1017.54 1018.33 1018.28 1018.45 1018.59 1018.42 1017.97 1017.20 1016.49 1014.15 1011.06 1007.81 1007.34 1007.29 1007.18 1007.12 1007.68 1008.45 1009.50 1010.35 1011.07 1011.85 1012.61 1013.30 1014.07 1015.03 1015.73 1016.35 1016.94 1017.38
1017.16 1017.63 1017.70 1017.24 1015.94 1015.19 1014.36 1013.82 1013.86 1013.84 1014.11 1015.00 1015.81 1016.91 1017.22 1017.63 1018.16 1017.95 1017.92 1017.31 1016.97 1016.51 1015.15 1012.54 1009.30 1006.83 1006.90 1007.33 1007.55 1008.08 1008.55 1009.06 1009.94 1010.89 1011.77 1012.69 1013.46 1014.31 1014.95 1015.55 1016.12 1016.63 1017.21 1017.66
1016.24 1016.07 1014.99 1013.41 1012.93 1012.65 1012.70 1012.74 1013.47 1013.85 1014.09 1014.80 1015.96 1016.70 1017.03 1017.42 1017.57 1017.10 1016.74 1016.91 1015.82 1014.23 1012.23 1009.48 1008.04 1007.42 1007.29 1007.71 1008.01 1008.60 1009.28 1009.89 1010.74 1011.66 1012.59 1013.36 1014.03 1014.87 1015.69 1016.27 1016.52 1016.92 1017.43 1017.89
1014.74 1013.42 1012.43 1012.01 1012.44 1012.74 1013.07 1013.03 1013.47 1013.51 1014.07 1014.65 1015.07 1016.21 1016.67 1016.35 1016.06 1016.21 1015.36 1014.79 1013.28 1010.98 1009.40 1008.19 1007.98 1007.90 1008.03 1008.23 1008.66 1009.15 1009.90 1010.60 1011.43 1012.19 1013.01 1013.73 1014.39 1015.16 1015.97 1016.71 1017.06 1017.37 1017.80 1018.53
1011.96 1010.71 1010.96 1011.06 1011.52 1011.91 1012.52 1012.71 1012.91 1013.08 1013.86 1014.12 1014.43 1014.98 1014.51 1014.19 1014.23 1013.76 1012.56 1011.84 1010.05 1008.87 1008.68 1008.64 1008.42 1008.40 1008.61 1008.81 1009.23 1009.92 1010.50 1011.28 1011.97 1012.64 1013.37 1014.09 1014.77 1015.34 1016.08 1016.89 1017.38 1017.60 1017.99 1018.40
Wind_Speed
15 12 15 14 11 18 6 2 2 3 6 2 2 4 3 2 4 1 2 2 2 4 4 1 2 3 5 4 6 6 5 3 6 5 6 5 3 6 7 3 7 5 1 4
19 22 13 9 13 15 4 2 2 3 3 1 3 5 7 6 3 5 2 3 2 3 3 1 1 5 3 2 4 5 5 5 6 5 2 2 7 13 16 2 2 16 4 5
13 15 14 14 16 13 0 2 4 2 2 3 1 7 5 5 3 3 2 2 4 3 0 3 2 2 2 1 4 6 3 5 5 3 5 5 10 16 18 13 4 6 11 11
6 10 14 16 17 12 1 1 2 3 2 0 4 3 2 4 3 1 3 2 2 4 3 4 3 4 2 5 2 4 1 3 5 1 2 7 12 13 16 13 12 7 11 9
3 6 10 13 18 15 2 3 2 3 4 1 3 0 2 2 3 2 2 2 3 4 4 5 5 5 4 3 5 1 1 3 2 4 4 2 10 13 11 11 12 7 11 6
3 5 8 10 14 12 3 2 2 2 1 2 3 2 4 3 1 2 2 7 4 3 4 6 6 5 3 3 1 4 1 3 4 4 5 3 3 7 8 4 11 7 9 7
3 5 7 8 10 7 2 1 2 3 1 3 2 1 1 2 2 3 2 5 5 3 5 7 7 8 7 7 4 5 4 4 2 4 6 3 2 6 1 6 9 10 10 10
6 5 5 8 9 7 3 1 1 2 3 2 3 3 2 4 2 0 1 4 3 5 4 4 4 3 4 7 6 4 2 4 2 1 2 4 3 3 1 3 4 9 8 10
8 5 3 5 7 12 4 1 1 1 2 3 8 2 2 3 4 2 3 2 1 4 2 2 3 2 3 3 2 6 5 6 2 2 1 1 3 4 1 4 1 5 8 9
11 9 6 5 6 9 5 3 5 1 1 2 4 1 2 5 4 1 2 4 3 1 2 3 2 2 1 2 4 1 2 2 2 2 1 2 5 4 1 1 1 4 5 7
12 11 11 7 5 7 4 1 4 5 1 3 2 1 0 4 3 2 2 2 1 3 2 2 2 2 0 2 3 2 2 0 3 1 1 3 5 3 2 4 4 4 3 5
8 10 12 9 5 4 4 2 1 4 3 2 1 1 1 3 2 3 3 1 2 1 2 2 3 3 2 2 4 1 3 4 2 3 3 4 3 5 4 6 6 2 4 3
7 8 10 7 5 5 1 2 2 3 2 2 2 3 5 5 4 3 2 0 5 3 2 1 3 4 2 3 5 2 4 4 3 3 4 7 7 5 5 5 6 6 4 4
6 8 10 11 8 8 5 1 0 3 3 3 2 1 3 4 4 3 2 3 4 3 2 2 3 2 2 4 3 3 2 5 5 4 6 5 7 8 8 5 6 6 5 4
6 9 11 15 16 13 3 2 3 1 1 3 1 3 2 2 3 4 4 3 3 2 2 3 4 1 1 4 2 6 7 8 6 6 9 7 8 10 10 9 7 7 6 4
6 8 12 0 12 13 3 3 1 2 1 2 3 3 4 2 3 4 5 4 2 2 2 4 3 3 0 3 5 8 9 7 7 4 5 4 8 10 8 8 8 7 6 6
5 5 6 9 13 3 2 1 0 2 1 3 4 3 3 4 3 2 1 2 2 2 3 3 3 3 3 4 7 6 8 9 6 7 9 5 7 6 8 7 8 6 7 6
5 4 6 9 10 4 2 1 1 2 1 1 3 3 2 6 3 3 2 3 3 3 3 0 3 1 3 9 12 7 6 8 8 8 3 5 8 9 8 7 7 7 6 6
4 9 14 4 2 2 2 2 3 1 1 3 3 2 3 2 1 1 1 2 3 2 4 4 5 5 11 13 8 9 9 10 9 8 6 7 9 9 9 7 7 6 7 6
13 3 1 1 0 4 6 0 1 2 3 4 3 2 2 3 2 2 2 2 3 3 6 2 4 9 13 11 11 8 11 10 12 11 9 8 8 10 8 8 7 6 6 6
2 3 2 1 5 1 1 3 4 4 4 5 5 6 5 3 3 3 3 2 2 2 4 3 5 7 7 16 21 10 11 13 14 5 7 8 11 11 8 8 7 7 7 5
6 7 4 2 2 3 5 5 4 6 7 4 5 3 4 2 1 3 1 2 2 7 2 1 6 8 6 3 6 10 12 12 12 8 10 9 10 9 9 8 8 7 7 6
3 3 3 4 4 7 8 9 6 5 5 4 3 3 4 2 1 2 3 5 7 2 4 7 8 7 2 3 1 7 9 11 11 9 9 10 10 9 10 9 7 7 7 6
3 5 7 8 8 8 8 7 4 4 4 7 5 3 4 3 4 3 5 5 1 4 5 8 6 7 7 6 5 7 9 10 11 12 12 11 11 9 8 8 7 7 6 5
5 6 9 11 5 3 3 3 4 0 7 9 4 2 3 3 3 5 2 3 7 7 8 7 3 3 7 8 6 8 9 11 10 9 11 10 9 9 7 6 6 7 6 6
4 8 5 2 6 3 1 2 3 2 7 2 3 4 3 6 5 5 11 7 9 8 6 3 1 2 3 4 5 7 8 10 10 9 9 10 10 10 8 6 5 5 6 5
8 6 7 2 2 4 4 3 3 6 8 4 4 7 13 2 4 6 7 8 6 2 2 2 2 4 5 6 7 8 9 9 9 9 8 7 7 9 7 7 5 5 5 4
Wind_Direction
85 72 99 113 75 359 324 17 51 346 317 19 300 63 38 259 90 128 104 327 354 7 120 343 120 259 209 343 314 307 159 301 281 259 132 300 297 345 341 345 357 341 345 18
68 69 57 20 2 339 330 34 319 248 260 35 82 126 101 57 56 53 7 44 338 358 15 317 168 203 172 291 301 2 332 264 313 2 285 319 12 359 2 336 267 23 4 6
52 50 53 31 8 358 226 232 342 331 289 293 22 122 113 112 32 69 11 355 268 283 298 138 290 1 116 145 282 321 257 283 62 29 304 314 6 18 6 16 1 4 24 6
38 35 25 12 351 352 199 304 7 5 279 327 67 23 123 121 118 52 330 209 333 354 320 315 76 350 60 152 255 321 340 308 358 122 112 57 42 22 17 15 17 31 345 11
313 8 29 16 348 348 121 335 347 254 357 288 154 8 140 176 127 324 105 318 348 356 49 11 334 347 28 56 303 194 248 308 268 263 236 193 54 19 15 13 1 11 9 35
284 347 3 21 11 355 27 331 265 256 49 257 274 76 125 166 138 146 353 330 297 23 21 337 331 306 278 247 333 307 226 307 335 285 317 323 37 23 9 2 15 347 17 20
348 342 347 11 38 35 13 8 285 300 94 269 337 125 91 200 99 352 73 332 326 26 290 281 243 249 242 258 218 196 287 280 240 279 306 37 182 125 300 55 26 7 28 14
335 337 360 358 357 350 103 336 32 15 325 313 49 292 195 72 182 212 312 66 355 318 290 300 307 216 229 199 193 246 239 278 290 135 80 174 178 148 247 330 23 14 27 9
326 313 326 0 16 341 318 347 230 331 330 32 331 218 245 224 217 163 146 152 304 305 317 318 293 302 352 314 243 178 239 229 211 306 153 125 125 134 296 297 181 16 21 21
346 327 284 305 5 357 342 344 309 148 346 40 352 33 291 333 324 46 125 168 165 16 294 279 257 319 82 273 295 51 280 292 268 355 5 107 129 128 111 292 243 47 32 39
342 330 323 276 318 345 357 26 324 313 200 139 192 47 54 337 298 305 105 111 249 146 259 280 272 261 344 314 230 219 261 195 211 61 253 263 148 130 240 155 103 131 61 55
335 336 327 260 277 325 342 298 349 319 319 347 323 331 152 168 128 307 307 333 338 341 253 338 315 275 211 281 281 52 269 194 195 177 197 126 157 113 109 143 142 147 109 3
322 323 330 313 257 279 273 320 353 271 249 206 256 200 164 189 184 117 316 82 11 342 87 306 289 288 38 263 241 337 235 129 223 38 158 170 179 148 152 158 136 132 112 108
307 313 308 299 255 241 193 247 67 272 292 278 222 208 218 139 166 182 183 292 292 292 290 256 251 258 58 281 265 230 214 122 210 240 166 165 188 176 162 129 117 120 116 102
296 306 307 296 265 228 184 247 218 256 302 300 308 150 149 168 201 184 200 203 283 270 270 224 234 247 1 249 331 244 180 189 176 218 185 170 188 171 159 152 167 159 148 134
269 307 316 303 118 123 138 297 167 202 212 287 289 144 177 206 203 187 186 216 187 248 256 261 281 98 339 274 252 248 211 199 204 210 139 114 131 140 138 152 158 144 139 109
264 314 344 160 145 118 160 217 137 158 55 274 289 222 147 182 190 166 178 163 231 173 256 235 250 177 178 255 240 242 222 184 150 120 101 95 133 159 161 144 119 123 114 113
231 290 328 171 124 98 274 237 175 147 240 246 272 253 199 170 203 201 199 187 180 218 236 215 205 172 215 253 241 234 193 158 156 168 152 162 146 129 139 126 133 155 161 137
179 108 105 99 77 159 232 136 128 352 230 247 187 232 244 169 229 95 197 245 213 165 230 223 155 208 221 231 210 209 188 179 172 158 151 140 143 142 146 143 154 160 146 133
142 148 145 130 122 118 123 57 200 177 233 232 232 171 205 180 166 223 184 210 243 232 229 153 225 251 238 244 219 217 185 169 157 141 169 165 161 157 156 160 157 135 118 112
144 158 112 98 125 53 214 235 215 174 230 205 213 176 153 238 161 200 227 219 250 266 249 167 253 261 238 224 227 193 178 170 182 168 162 156 153 151 150 142 128 120 115 107
144 111 101 129 177 195 213 201 190 219 230 179 159 196 123 155 150 143 200 248 11 252 142 200 267 252 253 220 231 184 164 158 156 156 153 153 145 142 134 133 131 123 117 111
93 85 133 175 169 216 214 187 198 210 190 168 155 135 126 105 185 143 181 185 230 330 230 232 232 265 198 246 165 131 142 138 143 131 120 114 112 108 124 122 118 120 119 115
160 160 208 203 199 213 202 207 175 201 124 143 133 106 145 148 162 161 188 218 125 248 245 242 243 250 176 163 151 138 148 136 128 128 125 123 123 116 113 119 128 127 125 119
194 191 222 216 224 194 172 152 104 186 137 141 91 62 125 169 184 206 139 181 251 216 230 226 269 211 158 160 157 145 139 133 131 131 131 131 129 128 118 120 119 116 123 121
222 221 218 251 181 171 153 156 128 167 150 73 85 147 142 234 186 166 214 171 218 245 227 258 9 156 148 150 142 130 130 131 131 127 131 131 133 136 134 119 113 116 119 114
221 194 200 197 136 205 169 144 172 160 151 187 158 188 211 111 195 224 189 205 224 230 300 282 249 179 169 152 130 130 128 127 129 127 129 126 124 122 125 132 150 138 137 143